CSN5239 ZBAD-ZSPD

Flight info

Callsign CSN5239
Flight time N/A
Altitude 35100
Route ELKUR W40 YQG/K0826S1100 W142 DALIM/K0822S1130 A593 DPX A470 DALNU W166 ZJ W167 SASAN R343 EKIMU
Aircraft A320/M-SDE2E3FGILRWXY/LB1D1

Departure

Time 2026-04-19 03:28
Airport Beijing Daxing International Airport (ZBAD)

Arrival

Time N/A
Airport Shanghai Pudong International Airport (ZSPD)
Time Latitude Longitude Altitude Speed Heading
2026-04-19 03:11 39.50702 116.40718 95 ft 0 kts 312°
2026-04-19 03:14 39.50701 116.40719 95 ft 1 kts 312°
2026-04-19 03:15 39.50685 116.40742 95 ft 4 kts 312°
2026-04-19 03:15 39.50667 116.40768 94 ft 4 kts 310°
2026-04-19 03:15 39.50651 116.40796 94 ft 4 kts 294°
2026-04-19 03:15 39.50647 116.40823 94 ft 3 kts 232°
2026-04-19 03:16 39.50649 116.40825 94 ft 0 kts 229°
2026-04-19 03:19 39.50646 116.40821 94 ft 4 kts 229°
2026-04-19 03:20 39.50619 116.40787 94 ft 5 kts 223°
2026-04-19 03:20 39.50596 116.40761 96 ft 4 kts 217°
2026-04-19 03:20 39.50580 116.40747 95 ft 2 kts 213°
2026-04-19 03:20 39.50565 116.40735 95 ft 3 kts 211°
2026-04-19 03:21 39.50545 116.40719 95 ft 4 kts 212°
2026-04-19 03:21 39.50507 116.40688 96 ft 9 kts 212°
2026-04-19 03:21 39.50439 116.40633 96 ft 14 kts 212°
2026-04-19 03:21 39.50346 116.40579 96 ft 16 kts 181°
2026-04-19 03:22 39.50231 116.40596 95 ft 18 kts 174°
2026-04-19 03:22 39.50145 116.40564 97 ft 14 kts 245°
2026-04-19 03:22 39.50132 116.40434 95 ft 16 kts 263°
2026-04-19 03:22 39.50117 116.40288 96 ft 16 kts 262°
2026-04-19 03:23 39.50186 116.40201 95 ft 17 kts 353°
2026-04-19 03:23 39.50309 116.40183 97 ft 19 kts 353°
2026-04-19 03:23 39.50444 116.40161 97 ft 20 kts 353°
2026-04-19 03:23 39.50591 116.40138 97 ft 22 kts 353°
2026-04-19 03:24 39.50751 116.40113 95 ft 24 kts 353°
2026-04-19 03:24 39.50923 116.40085 95 ft 26 kts 353°
2026-04-19 03:24 39.51106 116.40058 94 ft 27 kts 353°
2026-04-19 03:24 39.51299 116.40026 95 ft 29 kts 353°
2026-04-19 03:25 39.51495 116.39996 95 ft 25 kts 352°
2026-04-19 03:25 39.51664 116.39970 96 ft 25 kts 353°
2026-04-19 03:25 39.51797 116.39927 95 ft 16 kts 306°
2026-04-19 03:25 39.51796 116.39784 97 ft 15 kts 263°
2026-04-19 03:26 39.51793 116.39751 96 ft 0 kts 263°
2026-04-19 03:26 39.51793 116.39750 96 ft 1 kts 263°
2026-04-19 03:26 39.51786 116.39704 95 ft 8 kts 251°
2026-04-19 03:26 39.51733 116.39644 95 ft 12 kts 217°
2026-04-19 03:27 39.51661 116.39632 95 ft 0 kts 172°
2026-04-19 03:27 39.51498 116.39658 98 ft 59 kts 173°
2026-04-19 03:27 39.50868 116.39756 96 ft 121 kts 173°
2026-04-19 03:28 39.49870 116.39913 106 ft 166 kts 175°
2026-04-19 03:28 39.48719 116.40102 679 ft 168 kts 174°
2026-04-19 03:28 39.47549 116.40304 1303 ft 172 kts 174°
2026-04-19 03:28 39.46284 116.40526 1555 ft 195 kts 174°
2026-04-19 03:29 39.44847 116.40723 1801 ft 221 kts 176°
2026-04-19 03:29 39.43240 116.40925 2183 ft 244 kts 176°
2026-04-19 03:29 39.41477 116.41176 2707 ft 263 kts 175°
2026-04-19 03:29 39.39640 116.41471 3532 ft 269 kts 172°
2026-04-19 03:30 39.37821 116.41993 4471 ft 273 kts 169°
2026-04-19 03:30 39.35974 116.42595 5299 ft 276 kts 168°
2026-04-19 03:30 39.34108 116.43227 6176 ft 279 kts 167°
2026-04-19 03:30 39.32221 116.43874 6993 ft 282 kts 167°
2026-04-19 03:31 39.30318 116.44526 7823 ft 284 kts 167°
2026-04-19 03:31 39.28401 116.45179 8672 ft 286 kts 167°
2026-04-19 03:31 39.26468 116.45830 9491 ft 289 kts 168°
2026-04-19 03:31 39.24503 116.46483 10197 ft 296 kts 168°
2026-04-19 03:32 39.22431 116.47167 10453 ft 319 kts 168°
2026-04-19 03:32 39.20204 116.47903 10644 ft 342 kts 168°
2026-04-19 03:32 39.17846 116.48685 11039 ft 355 kts 168°
2026-04-19 03:32 39.15443 116.49488 11700 ft 359 kts 168°
2026-04-19 03:33 39.13015 116.50301 12420 ft 361 kts 169°
2026-04-19 03:33 39.10581 116.51115 13174 ft 363 kts 169°
2026-04-19 03:33 39.08130 116.51932 13872 ft 365 kts 169°
2026-04-19 03:33 39.05662 116.52757 14478 ft 368 kts 170°
2026-04-19 03:34 39.03173 116.53583 15020 ft 372 kts 170°
2026-04-19 03:34 39.00654 116.54416 15568 ft 376 kts 171°
2026-04-19 03:34 38.98111 116.55253 16135 ft 379 kts 171°
2026-04-19 03:34 38.95546 116.56097 16682 ft 383 kts 171°
2026-04-19 03:35 38.92953 116.56954 17237 ft 386 kts 172°
2026-04-19 03:35 38.91227 116.57527 17571 ft 389 kts 172°
2026-04-19 03:35 38.88595 116.58398 18068 ft 393 kts 172°
2026-04-19 03:35 38.85931 116.59275 18518 ft 397 kts 172°
2026-04-19 03:36 38.83244 116.60156 18943 ft 401 kts 172°
2026-04-19 03:36 38.80529 116.61047 19346 ft 405 kts 172°
2026-04-19 03:36 38.77785 116.61951 19765 ft 409 kts 172°
2026-04-19 03:36 38.75017 116.62863 20168 ft 413 kts 172°
2026-04-19 03:37 38.72217 116.63784 20577 ft 417 kts 172°
2026-04-19 03:37 38.69394 116.64712 20976 ft 421 kts 172°
2026-04-19 03:37 38.66543 116.65647 21367 ft 424 kts 173°
2026-04-19 03:37 38.63646 116.66217 21751 ft 420 kts 183°
2026-04-19 03:38 38.60739 116.66146 22134 ft 416 kts 192°
2026-04-19 03:38 38.57844 116.65797 22505 ft 420 kts 192°
2026-04-19 03:38 38.54921 116.65447 22886 ft 423 kts 192°
2026-04-19 03:38 38.51974 116.65102 23270 ft 427 kts 191°
2026-04-19 03:39 38.48999 116.64764 23615 ft 430 kts 191°
2026-04-19 03:39 38.46009 116.64426 23934 ft 433 kts 191°
2026-04-19 03:39 38.42996 116.64087 24268 ft 435 kts 191°
2026-04-19 03:39 38.39971 116.63744 24594 ft 437 kts 191°
2026-04-19 03:40 38.36934 116.63397 24875 ft 440 kts 191°
2026-04-19 03:40 38.33908 116.63051 25187 ft 443 kts 191°
2026-04-19 03:40 38.30816 116.62822 25492 ft 449 kts 185°
2026-04-19 03:40 38.27677 116.63182 25805 ft 458 kts 175°
2026-04-19 03:41 38.24560 116.64180 26109 ft 465 kts 168°
2026-04-19 03:41 38.21448 116.65352 26416 ft 467 kts 168°
2026-04-19 03:41 38.18320 116.66518 26711 ft 469 kts 168°
2026-04-19 03:41 38.15176 116.67681 26992 ft 471 kts 168°
2026-04-19 03:42 38.12018 116.68846 27280 ft 473 kts 168°
2026-04-19 03:42 38.08847 116.70023 27556 ft 475 kts 168°
2026-04-19 03:42 38.05667 116.71224 27828 ft 478 kts 168°
2026-04-19 03:42 38.02475 116.72445 28106 ft 480 kts 168°
2026-04-19 03:43 37.99276 116.73672 28381 ft 481 kts 168°
2026-04-19 03:43 37.96064 116.74904 28645 ft 483 kts 168°
2026-04-19 03:43 37.92843 116.76136 28974 ft 483 kts 168°
2026-04-19 03:43 37.89622 116.77364 29365 ft 482 kts 168°
2026-04-19 03:44 37.86410 116.78588 29748 ft 482 kts 168°
2026-04-19 03:44 37.83202 116.79807 30104 ft 481 kts 168°
2026-04-19 03:44 37.80000 116.81023 30422 ft 480 kts 168°
2026-04-19 03:44 37.76844 116.82220 30733 ft 479 kts 168°
2026-04-19 03:45 37.73654 116.83426 31041 ft 479 kts 168°
2026-04-19 03:45 37.70453 116.84633 31331 ft 478 kts 168°
2026-04-19 03:45 37.67263 116.85833 31626 ft 478 kts 168°
2026-04-19 03:45 37.64074 116.87031 31929 ft 478 kts 168°
2026-04-19 03:46 37.60889 116.88227 32253 ft 477 kts 168°
2026-04-19 03:46 37.57704 116.89428 32566 ft 477 kts 168°
2026-04-19 03:46 37.54532 116.90624 32870 ft 476 kts 168°
2026-04-19 03:46 37.51353 116.91824 33172 ft 476 kts 168°
2026-04-19 03:47 37.48186 116.93016 33473 ft 475 kts 168°
2026-04-19 03:47 37.45007 116.94207 33724 ft 476 kts 168°
2026-04-19 03:47 37.41834 116.95390 33985 ft 476 kts 168°
2026-04-19 03:47 37.38654 116.96575 34235 ft 476 kts 168°
2026-04-19 03:48 37.35480 116.97761 34492 ft 476 kts 168°
2026-04-19 03:48 37.32304 116.98949 34743 ft 476 kts 168°
2026-04-19 03:48 37.29134 117.00146 34941 ft 477 kts 167°
2026-04-19 03:49 37.22883 117.02878 35001 ft 481 kts 163°
2026-04-19 03:49 37.16635 117.05954 35009 ft 483 kts 163°
2026-04-19 03:50 37.10370 117.09011 35012 ft 482 kts 164°
2026-04-19 03:50 37.04084 117.11947 35020 ft 482 kts 165°
2026-04-19 03:51 36.98750 117.14387 35008 ft 482 kts 164°
2026-04-19 03:51 36.94865 117.16174 35009 ft 483 kts 164°
2026-04-19 03:52 36.88570 117.19095 35023 ft 483 kts 164°
2026-04-19 03:52 36.82160 117.21310 35032 ft 473 kts 178°
2026-04-19 03:53 36.75662 117.21550 35026 ft 466 kts 187°
2026-04-19 03:53 36.69169 117.21496 35014 ft 468 kts 186°
2026-04-19 03:54 36.62700 117.21455 35023 ft 469 kts 186°
2026-04-19 03:54 36.56170 117.21409 35030 ft 469 kts 186°
2026-04-19 03:55 36.49633 117.21358 35034 ft 470 kts 186°
2026-04-19 03:55 36.43071 117.21436 35037 ft 476 kts 180°
2026-04-19 03:56 36.36545 117.23240 35041 ft 485 kts 167°
2026-04-19 03:56 36.30076 117.25672 35045 ft 486 kts 168°
2026-04-19 03:57 36.23599 117.28080 35046 ft 486 kts 168°
2026-04-19 03:57 36.17112 117.30478 35052 ft 487 kts 168°
2026-04-19 03:58 36.10613 117.32876 35059 ft 487 kts 168°
2026-04-19 03:58 36.04110 117.35274 35057 ft 488 kts 167°
2026-04-19 03:59 35.97607 117.37679 35066 ft 489 kts 167°
2026-04-19 03:59 35.91074 117.40116 35098 ft 491 kts 167°
2026-04-19 04:00 35.84551 117.42572 35095 ft 490 kts 167°
2026-04-19 04:00 35.78076 117.44996 35084 ft 489 kts 167°
2026-04-19 04:01 35.71561 117.47419 35096 ft 489 kts 167°
2026-04-19 04:01 35.61782 117.51057 35090 ft 490 kts 167°
2026-04-19 04:02 35.55252 117.53487 35089 ft 490 kts 167°
2026-04-19 04:02 35.48715 117.55907 35092 ft 491 kts 167°
2026-04-19 04:03 35.42177 117.58322 35087 ft 491 kts 167°
2026-04-19 04:03 35.35643 117.60733 35093 ft 490 kts 167°
2026-04-19 04:04 35.29104 117.63136 35077 ft 491 kts 167°
2026-04-19 04:04 35.22569 117.65549 35086 ft 491 kts 167°
2026-04-19 04:05 35.16027 117.67959 35086 ft 491 kts 167°
2026-04-19 04:05 35.09522 117.70344 35092 ft 491 kts 167°
2026-04-19 04:06 35.02969 117.72741 35086 ft 492 kts 167°
2026-04-19 04:06 34.96408 117.75146 35095 ft 492 kts 167°
2026-04-19 04:07 34.89848 117.77557 35098 ft 493 kts 167°
2026-04-19 04:07 34.83273 117.79957 35086 ft 493 kts 167°
2026-04-19 04:08 34.76699 117.82344 35086 ft 492 kts 167°
2026-04-19 04:08 34.70130 117.84705 35090 ft 492 kts 167°
2026-04-19 04:09 34.63556 117.87057 35093 ft 492 kts 167°
2026-04-19 04:09 34.57029 117.89393 35087 ft 492 kts 167°
2026-04-19 04:10 34.50462 117.91759 35089 ft 492 kts 167°
2026-04-19 04:10 34.43889 117.94114 35097 ft 492 kts 167°
2026-04-19 04:11 34.37319 117.96454 35088 ft 492 kts 167°
2026-04-19 04:11 34.30746 117.98789 35078 ft 492 kts 167°
2026-04-19 04:12 34.24168 118.01136 35083 ft 493 kts 166°
2026-04-19 04:12 34.17601 118.03524 35086 ft 493 kts 166°
2026-04-19 04:13 34.11084 118.05922 35087 ft 493 kts 166°
2026-04-19 04:13 34.04505 118.08323 35082 ft 493 kts 166°
2026-04-19 04:14 33.97923 118.10706 35081 ft 494 kts 166°
2026-04-19 04:14 33.91338 118.13102 35084 ft 495 kts 166°
2026-04-19 04:15 33.84754 118.15504 35085 ft 495 kts 164°
2026-04-19 04:15 33.78518 118.19044 35078 ft 498 kts 147°
2026-04-19 04:16 33.72814 118.23795 35083 ft 499 kts 146°
2026-04-19 04:16 33.67152 118.28528 35089 ft 499 kts 146°
2026-04-19 04:17 33.61433 118.33269 35096 ft 499 kts 146°
2026-04-19 04:17 33.55708 118.37990 35111 ft 499 kts 145°
2026-04-19 04:18 33.49980 118.42727 35096 ft 499 kts 145°
2026-04-19 04:18 33.44258 118.47459 35105 ft 499 kts 145°
2026-04-19 04:19 33.38573 118.52143 35103 ft 500 kts 145°
2026-04-19 04:19 33.32845 118.56862 35105 ft 499 kts 145°
2026-04-19 04:20 33.27119 118.61570 35108 ft 500 kts 145°
2026-04-19 04:20 33.21389 118.66264 35102 ft 499 kts 145°
2026-04-19 04:21 33.15668 118.70981 35115 ft 500 kts 143°
2026-04-19 04:21 33.09970 118.75736 35112 ft 499 kts 143°
2026-04-19 04:22 33.04268 118.80470 35112 ft 499 kts 144°
2026-04-19 04:22 32.98556 118.85186 35108 ft 499 kts 144°
2026-04-19 04:23 32.92843 118.89902 35105 ft 499 kts 144°
2026-04-19 04:23 32.87135 118.94617 35102 ft 499 kts 144°
2026-04-19 04:24 32.81430 118.99325 35123 ft 499 kts 144°
2026-04-19 04:24 32.75780 119.04021 35126 ft 499 kts 143°
2026-04-19 04:25 32.70095 119.08746 35124 ft 498 kts 143°
2026-04-19 04:25 32.64407 119.13459 35120 ft 498 kts 144°
2026-04-19 04:26 32.59679 119.17363 35120 ft 498 kts 144°
2026-04-19 04:26 32.53989 119.22063 35117 ft 498 kts 144°
2026-04-19 04:27 32.48297 119.26755 35127 ft 498 kts 144°
2026-04-19 04:27 32.42610 119.31440 35125 ft 498 kts 144°
2026-04-19 04:28 32.36918 119.36118 35122 ft 498 kts 144°
2026-04-19 04:28 32.31219 119.40786 35111 ft 498 kts 144°
2026-04-19 04:29 32.25522 119.45445 35111 ft 498 kts 144°
2026-04-19 04:29 32.19821 119.50099 35110 ft 498 kts 144°
2026-04-19 04:30 32.14122 119.54750 35121 ft 498 kts 144°
2026-04-19 04:30 32.08423 119.59400 35117 ft 498 kts 145°
2026-04-19 04:31 32.02728 119.64039 35098 ft 498 kts 145°
2026-04-19 04:31 31.97076 119.68658 35099 ft 497 kts 142°
2026-04-19 04:32 31.92232 119.74411 35095 ft 494 kts 124°
2026-04-19 04:32 31.88368 119.81108 35092 ft 494 kts 122°
2026-04-19 04:33 31.84516 119.87798 35096 ft 494 kts 123°
2026-04-19 04:33 31.80652 119.94489 35097 ft 494 kts 123°
2026-04-19 04:34 31.76791 120.01173 35096 ft 494 kts 123°
2026-04-19 04:34 31.72927 120.07856 35090 ft 494 kts 123°
2026-04-19 04:35 31.69091 120.14488 35103 ft 494 kts 123°
2026-04-19 04:35 31.65221 120.21159 35092 ft 494 kts 123°
2026-04-19 04:36 31.61347 120.27823 35080 ft 494 kts 124°
2026-04-19 04:36 31.58039 120.34857 34308 ft 491 kts 108°
2026-04-19 04:37 31.56902 120.38618 33069 ft 489 kts 106°
2026-04-19 04:37 31.55809 120.42352 32229 ft 482 kts 106°
2026-04-19 04:37 31.54719 120.46093 31219 ft 488 kts 106°
2026-04-19 04:37 31.53612 120.49875 30284 ft 492 kts 106°
2026-04-19 04:38 31.52486 120.53681 29105 ft 497 kts 106°
2026-04-19 04:38 31.51343 120.57517 28000 ft 500 kts 106°
2026-04-19 04:38 31.50194 120.61339 27372 ft 493 kts 106°
2026-04-19 04:38 31.49051 120.65109 26625 ft 488 kts 106°
2026-04-19 04:39 31.47919 120.68840 25907 ft 483 kts 106°
2026-04-19 04:39 31.46803 120.72528 25196 ft 478 kts 106°
2026-04-19 04:39 31.45698 120.76186 24511 ft 474 kts 106°
2026-04-19 04:39 31.44605 120.79814 23830 ft 470 kts 105°
2026-04-19 04:40 31.43525 120.83415 23099 ft 467 kts 105°
2026-04-19 04:40 31.42453 120.86983 22453 ft 461 kts 106°
2026-04-19 04:40 31.41403 120.90459 21845 ft 456 kts 106°
2026-04-19 04:40 31.40350 120.93939 21237 ft 451 kts 106°
2026-04-19 04:41 31.39294 120.97423 20646 ft 446 kts 106°
2026-04-19 04:41 31.38275 121.00782 20106 ft 441 kts 107°
2026-04-19 04:41 31.37251 121.04146 19574 ft 437 kts 107°
2026-04-19 04:41 31.36171 121.07454 19057 ft 434 kts 112°
2026-04-19 04:42 31.34699 121.10525 18557 ft 432 kts 123°
2026-04-19 04:42 31.32819 121.13260 18029 ft 430 kts 133°
2026-04-19 04:42 31.30627 121.15616 17519 ft 426 kts 139°
2026-04-19 04:42 31.28402 121.17871 17010 ft 422 kts 139°
2026-04-19 04:43 31.26198 121.20110 16519 ft 418 kts 139°
2026-04-19 04:43 31.24014 121.22329 15998 ft 415 kts 139°
2026-04-19 04:43 31.21840 121.24535 15497 ft 412 kts 139°
2026-04-19 04:43 31.19676 121.26728 14939 ft 411 kts 139°
2026-04-19 04:44 31.17522 121.28908 14417 ft 409 kts 139°
2026-04-19 04:44 31.15519 121.31252 13847 ft 408 kts 128°
2026-04-19 04:44 31.13981 121.34008 13242 ft 404 kts 115°
2026-04-19 04:44 31.12973 121.37043 12664 ft 399 kts 103°
2026-04-19 04:45 31.12515 121.40205 12083 ft 393 kts 91°
2026-04-19 04:45 31.12530 121.43372 11504 ft 389 kts 85°
2026-04-19 04:45 31.12600 121.46444 11282 ft 376 kts 85°
2026-04-19 04:45 31.12660 121.49427 11191 ft 360 kts 85°
2026-04-19 04:46 31.12708 121.52247 11044 ft 336 kts 85°
2026-04-19 04:46 31.12751 121.54883 10894 ft 314 kts 85°
2026-04-19 04:46 31.12793 121.57355 10745 ft 298 kts 85°
2026-04-19 04:46 31.12836 121.59716 10604 ft 282 kts 85°
2026-04-19 04:47 31.12879 121.61955 10487 ft 271 kts 84°
2026-04-19 04:47 31.12877 121.64143 10358 ft 271 kts 94°
2026-04-19 04:47 31.12272 121.66223 10240 ft 275 kts 121°
2026-04-19 04:47 31.10952 121.67838 9928 ft 279 kts 149°
2026-04-19 04:48 31.09169 121.68715 9516 ft 280 kts 163°
2026-04-19 04:48 31.07319 121.69434 9147 ft 280 kts 163°
2026-04-19 04:48 31.05469 121.70159 8775 ft 281 kts 163°
2026-04-19 04:48 31.03630 121.70883 8403 ft 275 kts 163°
2026-04-19 04:49 31.01844 121.71590 8057 ft 270 kts 163°
2026-04-19 04:49 31.00066 121.72294 7705 ft 270 kts 163°
2026-04-19 04:49 30.98306 121.72992 7356 ft 271 kts 163°
2026-04-19 04:49 30.96519 121.73671 7000 ft 267 kts 165°
2026-04-19 04:50 30.94762 121.74289 6657 ft 262 kts 165°
2026-04-19 04:50 30.93026 121.74880 6345 ft 258 kts 166°
2026-04-19 04:50 30.91323 121.75458 5997 ft 252 kts 166°
2026-04-19 04:50 30.89665 121.76024 5676 ft 245 kts 165°
2026-04-19 04:51 30.88048 121.76579 5367 ft 240 kts 165°
2026-04-19 04:51 30.86585 121.77419 5095 ft 233 kts 135°
2026-04-19 04:51 30.85819 121.78998 4834 ft 222 kts 96°
2026-04-19 04:51 30.85956 121.80715 4596 ft 212 kts 65°
2026-04-19 04:52 30.86476 121.82295 4367 ft 205 kts 65°
2026-04-19 04:52 30.87117 121.83708 4121 ft 192 kts 48°
2026-04-19 04:52 30.88022 121.84754 3884 ft 177 kts 31°
2026-04-19 04:52 30.89061 121.85406 3654 ft 164 kts 17°
2026-04-19 04:53 30.90096 121.85887 3454 ft 157 kts 17°
2026-04-19 04:53 30.91090 121.86350 3248 ft 151 kts 17°
2026-04-19 04:53 30.92084 121.86676 3070 ft 147 kts
2026-04-19 04:53 30.93092 121.86687 2994 ft 144 kts 349°
2026-04-19 04:54 30.94052 121.86397 2997 ft 143 kts 340°
2026-04-19 04:54 30.94999 121.86048 2982 ft 143 kts 340°
2026-04-19 04:54 30.95942 121.85696 2976 ft 142 kts 340°
2026-04-19 04:54 30.96923 121.85329 2982 ft 154 kts 340°
2026-04-19 04:55 30.97950 121.84943 2905 ft 155 kts 341°
2026-04-19 04:55 30.98969 121.84560 2757 ft 153 kts 341°
2026-04-19 04:55 30.99980 121.84180 2563 ft 152 kts 341°
2026-04-19 04:55 31.00986 121.83801 2368 ft 152 kts 341°
2026-04-19 04:56 31.01988 121.83424 2168 ft 151 kts 341°
2026-04-19 04:56 31.02988 121.83048 1974 ft 151 kts 341°
2026-04-19 04:56 31.03955 121.82683 1774 ft 143 kts 341°
2026-04-19 04:56 31.04893 121.82330 1588 ft 137 kts 341°
2026-04-19 04:57 31.05783 121.81995 1408 ft 135 kts 341°
2026-04-19 04:57 31.06674 121.81659 1228 ft 134 kts 341°
2026-04-19 04:57 31.07560 121.81324 1048 ft 134 kts 341°
2026-04-19 04:57 31.08439 121.80994 882 ft 133 kts 343°
2026-04-19 04:58 31.09320 121.80660 718 ft 133 kts 342°
2026-04-19 04:58 31.10189 121.80329 545 ft 134 kts 343°
2026-04-19 04:58 31.10908 121.80058 381 ft 135 kts 342°
2026-04-19 04:58 31.11134 121.79973 358 ft 135 kts 342°
2026-04-19 04:59 31.11135 121.79973 354 ft 135 kts 342°